Hourly Data Report for January 05, 2021

BANCROFT AUTO
ONTARIO
Current Station Operator: ECCC - MSC

45°04'17.000" N
77°52'44.000" W
330.70 m
616I001
71294
WRK

Download Data

Hourly Data (January 2021)
Hourly Data Report for January 5, 2021
TIME
LST
Temp Definition
°C
Dew Point Definition
°C
Rel Hum Definition
%
Precip. Amount Definition
mm

Wind Dir Definition
10's deg

Wind Spd Definition
km/h
Visibility Definition
km
Stn Press Definition
kPa
Hmdx Definition


Wind Chill Definition


Weather Definition


00:00 -2.7 -3.1 97 0.1   0   97.43     LegendNANA
01:00 -2.6 -3.2 95 0.0 0 1   97.43   -3 LegendNANA
02:00 -2.6 -3.4 95 0.1 10 3   97.45   -4 LegendNANA
03:00 -2.7 -3.4 95 0.0   0   97.43     LegendNANA
04:00 -2.8 -3.5 95 0.0   0   97.39     LegendNANA
05:00 -2.9 -3.6 95 0.0   0   97.39     LegendNANA
06:00 -2.9 -3.8 93 0.0   0   97.42     LegendNANA
07:00 -3.0 -3.8 94 0.0 0 1   97.44   -3 LegendNANA
08:00 -3.0 -3.7 94 0.0   0   97.50     LegendNANA
09:00 -2.8 -3.7 94 0.0 35 2   97.54   -4 LegendNANA
10:00 -2.6 -3.6 93 0.2   0   97.56     LegendNANA
11:00 -2.2 -3.5 91 0.0 0 1   97.53   -3 LegendNANA
12:00 -1.7 -3.5 87 0.0 4 3   97.48   -3 LegendNANA
13:00 -1.7 -3.8 85 0.0 6 6   97.44   -4 LegendNANA
14:00 -1.7 -3.2 89 0.0 5 5   97.48   -4 LegendNANA
15:00 -1.5 -2.8 91 0.1 2 3   97.53   -3 LegendNANA
16:00 -1.5 -2.7 91 0.1 3 2   97.61   -2 LegendNANA
17:00 -1.6 -2.9 90 0.1 36 4   97.68   -3 LegendNANA
18:00 -1.8 -2.9 92 0.0 33 4   97.74   -3 LegendNANA
19:00 -2.0 -3.1 92 0.0 32 4   97.78   -3 LegendNANA
20:00 -2.2 -3.4 91 0.0 36 2   97.78   -3 LegendNANA
21:00 -2.2 -3.6 91 0.0 34 6   97.81   -5 LegendNANA
22:00 -2.4 -3.7 91 0.0 32 5   97.82   -4 LegendNANA
23:00 -2.4 -3.8 90 0.0 34 5   97.85   -4 LegendNANA

Notes on Data Quality.

Legend

  • E = Estimated
  • M = Missing
  • NA = Not Available*
  • [empty] = Indicates an unobserved value
Date modified: